Location: Limerick
(52.6650°N, 8.6230°W)
Time: 19:21:32
(UTC+01:00)

ISS - Pass Details

Date: 26 May 2017
Orbit: 402 x 408 km, 51.6° (Epoch: 29 May)

Event Time Altitude Azimuth Distance (km) Brightness Sun altitude
Rises 00:45:15 0° 261° (W) 2,332 0.1 -15.5°
Reaches altitude 10° 00:47:20 10° 260° (W) 1,471 -1.0 -15.6°
Maximum altitude 00:50:37 73° 176° (S) 429 -4.0 -15.7°
Drops below altitude 10° 00:53:54 10° 90° (E) 1,468 -1.1 -15.8°
Sets 00:55:59 0° 89° (E) 2,328 0.0 -15.8°
